Wind_Speed
24 23 18 17 14 13 12 11 10 7 6 5 5 6 7 10 12 6 6 4 9 12 10 10 7 5 3 3 2 2 2 4 4 4 1 4 8 1 2 2 3 5 2 2 16
27 25 21 18 16 13 12 11 10 8 6 6 5 6 8 11 10 6 4 12 11 14 10 10 7 5 3 2 1 1 3 5 2 2 6 11 5 10 2 4 5 3 4 10 18
29 27 24 21 18 13 11 11 11 9 5 5 5 5 7 10 3 2 4 14 11 11 11 8 7 3 3 2 2 2 2 3 2 7 7 8 8 1 1 4 6 6 7 13 18
32 29 27 24 21 15 12 11 10 8 5 5 4 3 6 3 2 1 3 15 15 11 12 7 4 4 3 5 4 3 4 3 3 3 3 5 8 5 4 2 4 3 8 15 16
35 32 30 25 22 19 14 11 10 7 4 6 5 2 0 2 4 0 7 19 16 11 8 5 4 4 5 4 5 4 2 4 6 8 7 4 9 4 6 5 5 5 12 14 14
37 34 32 28 23 21 16 13 9 5 4 6 6 3 2 3 4 3 12 20 14 11 7 4 3 2 4 3 3 5 3 5 5 6 4 4 1 5 7 5 5 2 9 16 16
39 36 35 29 25 21 15 11 6 3 3 6 6 3 2 7 5 5 12 14 14 12 6 4 4 2 4 3 2 1 4 5 6 3 3 7 4 8 5 3 8 8 6 8 14
40 38 36 31 25 19 13 8 3 2 3 5 5 2 6 3 6 6 12 9 10 9 5 6 2 2 1 4 1 2 2 5 2 3 1 5 7 8 3 5 11 11 9 9 12
42 38 36 31 25 14 9 5 5 4 4 6 2 2 6 3 4 9 14 8 10 7 6 4 2 2 3 2 2 2 3 3 3 1 1 4 5 4 4 7 12 12 11 8 9
44 38 36 30 23 7 5 6 7 5 5 3 1 3 5 1 3 6 11 10 5 8 5 4 2 3 3 3 2 4 3 2 4 3 2 3 10 5 8 4 5 5 5 8 10
46 40 35 27 17 5 5 2 1 1 2 6 4 4 4 2 3 5 8 7 3 3 6 2 5 10 8 6 2 5 3 6 8 6 4 5 5 8 10 13 12 13 12 12 12
47 42 34 23 6 5 7 5 3 3 9 12 17 12 9 3 4 4 12 7 5 9 4 4 10 9 5 6 6 6 6 8 8 5 8 4 2 9 12 13 13 13 14 12 13
47 43 29 19 5 6 10 7 12 5 3 4 4 3 2 13 8 7 10 6 5 8 10 11 4 6 9 6 7 7 7 3 4 4 2 5 4 7 9 13 14 15 13 14 14
48 40 23 11 5 4 2 16 15 10 3 5 2 1 3 4 5 12 11 4 4 13 7 7 7 9 8 10 9 8 9 5 3 6 6 3 5 5 8 10 13 13 14 15 17
49 31 17 13 3 3 11 19 3 2 5 6 3 5 3 2 5 2 6 5 13 8 6 9 7 9 8 13 10 6 7 7 5 7 4 6 5 7 5 6 9 11 12 13 14
45 20 16 7 7 14 20 10 3 0 4 4 4 6 1 3 3 2 4 1 1 6 3 9 1 4 9 3 10 4 4 3 2 4 7 10 10 8 6 5 7 8 11 12 13
38 12 17 16 9 19 14 2 1 2 6 7 5 7 3 7 7 7 3 3 3 6 11 13 13 2 4 7 4 4 5 7 8 7 9 6 8 5 8 7 7 7 9 11 12
32 8 16 21 21 12 5 2 3 2 3 3 5 5 4 10 5 9 5 5 8 4 3 6 11 6 1 7 8 9 10 8 12 11 10 4 7 7 8 8 6 6 6 9 12
29 7 10 28 14 7 3 1 1 2 2 5 4 3 2 4 5 3 6 3 5 11 2 2 5 1 6 2 2 5 7 2 3 2 5 5 4 4 7 6 5 6 8 10 11
18 9 6 28 8 3 2 2 2 3 2 1 2 2 2 5 4 3 3 2 3 10 2 6 5 6 4 1 9 1 3 3 2 6 10 5 6 4 15 7 3 4 7 8 10
8 4 11 26 4 4 0 1 3 2 1 2 1 1 1 0 0 1 1 3 2 6 9 8 6 9 8 6 5 2 2 3 1 3 7 11 4 6 11 6 3 2 4 7 9
6 4 15 20 2 2 1 4 4 3 1 0 2 2 3 2 1 2 1 3 7 2 2 5 4 8 12 6 2 7 4 3 5 5 1 3 3 7 7 4 1 1 3 6 7
5 3 9 9 2 2 4 3 2 4 2 1 2 1 1 1 1 4 4 2 6 3 3 5 4 3 2 2 3 6 3 4 5 1 11 9 3 8 5 3 3 3 4 6 7
3 4 3 5 2 3 5 2 5 4 1 1 1 2 2 1 3 5 5 1 4 1 6 1 3 5 8 2 1 3 4 5 2 3 5 8 4 9 10 8 6 3 6 8 9
4 2 1 5 2 5 2 3 4 4 4 4 1 2 2 2 2 1 2 1 1 2 1 1 4 4 10 9 6 8 9 8 10 10 8 10 11 8 10 10 3 4 7 10 12
3 3 2 3 4 4 0 1 3 4 4 3 2 2 2 3 2 2 4 3 4 3 2 1 3 2 5 7 8 12 11 11 12 12 13 13 16 5 3 2 3 5 7 10 11
3 1 2 1 2 3 0 2 0 6 3 4 7 3 2 2 5 5 5 1 1 3 6 3 3 3 4 2 5 9 11 14 8 7 8 8 2 6 4 4 5 8 12 12 9
Wind_Direction
16 14 10 6 0 353 350 347 342 325 284 275 278 289 300 309 312 297 229 176 172 154 137 131 125 125 102 107 108 162 140 183 187 199 357 350 351 81 302 208 176 188 280 15 151
17 15 10 4 359 351 345 340 339 331 287 264 269 288 306 315 312 246 184 157 145 153 143 145 139 140 103 100 102 164 196 195 203 245 313 322 323 331 285 211 202 200 88 132 152
17 15 12 6 360 352 342 333 332 328 298 253 258 284 312 323 270 90 156 171 153 149 150 139 129 147 122 155 139 150 217 192 220 249 281 310 306 342 209 221 238 227 176 162 170
15 12 10 6 360 352 336 325 323 316 293 228 235 281 318 328 125 132 153 165 158 148 137 134 138 132 136 164 157 212 241 226 280 233 274 285 302 311 197 286 202 236 181 168 184
14 11 7 3 359 349 335 321 317 305 272 212 201 211 320 288 245 258 151 163 162 159 159 150 152 142 142 153 152 208 232 205 257 270 252 272 258 298 263 257 308 155 164 176 193
10 8 5 1 356 349 335 319 309 289 241 206 188 180 170 258 170 119 159 165 172 163 165 159 147 167 121 151 218 182 253 277 271 263 207 215 263 193 249 254 289 193 193 182 197
7 6 2 359 356 350 341 327 309 262 207 191 181 170 224 252 178 126 164 175 177 177 155 184 152 172 149 165 160 163 285 294 226 228 238 182 172 218 224 220 244 256 223 213 206
5 3 359 357 353 352 351 356 357 148 165 171 172 159 254 207 207 222 181 174 183 183 159 137 162 136 228 123 83 239 204 257 188 195 67 224 239 238 231 224 235 233 227 225 216
4 360 356 355 350 353 4 35 68 100 126 145 142 203 268 276 232 219 192 176 170 177 188 125 119 102 140 169 228 39 242 208 292 38 107 224 237 241 295 277 257 238 245 243 246
2 358 353 353 347 6 68 82 90 89 112 115 113 272 249 206 162 155 167 141 150 143 127 163 140 174 134 203 242 127 147 219 267 156 306 211 258 312 357 1 333 6 332 331 321
1 356 352 351 348 63 116 90 347 117 184 229 235 241 282 251 247 162 160 137 111 131 186 133 215 222 218 212 235 222 225 257 265 231 267 206 259 35 53 64 62 57 41 23 18
360 353 351 353 15 83 70 80 89 297 299 240 252 258 261 325 283 150 158 171 175 202 144 197 248 235 207 187 201 213 246 257 278 227 213 178 172 71 57 57 63 66 59 36 25
359 352 350 355 107 71 83 78 334 193 268 308 222 233 230 197 227 209 180 150 181 191 207 221 231 136 185 187 201 239 230 219 261 123 159 151 188 142 78 65 57 48 46 43 34
359 352 354 9 83 27 75 339 344 171 328 288 11 51 124 146 216 198 183 161 199 225 192 233 243 235 221 243 221 253 211 212 188 188 205 231 201 133 118 83 59 44 35 25 20
358 355 5 40 54 52 321 326 8 175 329 359 37 129 126 234 300 159 186 182 218 182 180 213 207 201 211 224 181 251 176 210 200 206 195 182 227 144 206 86 58 46 41 34 26
360 10 32 20 28 342 334 332 133 161 253 7 27 352 5 24 16 47 170 72 155 175 232 251 207 215 246 202 203 114 140 90 102 180 227 205 225 177 180 133 90 70 41 24 15
3 49 46 32 330 335 344 28 110 203 356 3 350 340 13 360 26 9 57 77 280 225 223 231 241 253 225 239 174 185 198 222 223 217 250 179 208 34 131 104 81 43 28 23 21
3 41 18 0 345 346 359 68 210 19 356 351 339 324 62 12 30 27 82 57 27 355 229 242 242 223 100 242 247 201 218 234 251 246 252 164 208 157 119 98 68 50 28 27 27
358 1 7 353 349 351 58 109 217 202 285 327 322 29 37 16 2 87 63 50 43 7 319 294 244 45 88 41 312 156 213 352 173 63 246 182 103 127 134 102 70 42 33 20 13
344 333 347 350 349 18 73 231 225 234 282 221 239 354 320 7 9 22 126 55 40 43 350 27 298 21 342 195 63 59 86 195 196 234 242 204 200 185 180 146 99 45 22 11 5
357 352 353 350 351 48 99 286 305 301 285 341 197 168 133 237 194 107 86 69 30 295 21 355 350 304 318 23 0 6 152 65 327 305 264 253 214 127 149 138 123 57 24 8 2
359 319 351 354 30 31 77 315 298 288 2 138 148 173 194 168 111 109 98 30 355 329 140 179 184 249 261 328 331 296 264 207 237 246 108 310 248 143 131 143 179 3 4 358 352
343 288 346 360 55 25 326 297 281 347 326 318 195 25 60 182 173 147 161 164 33 79 154 169 194 269 172 189 190 219 158 113 90 84 235 244 234 167 166 215 226 291 345 337 339
342 327 342 39 35 27 356 325 315 317 269 27 115 123 124 169 319 158 154 198 356 86 53 206 220 239 246 347 58 218 214 182 192 206 244 239 259 191 229 268 284 309 339 340 340
11 57 45 327 31 344 285 314 315 320 8 6 137 185 151 192 196 211 154 192 202 355 59 126 256 249 262 267 257 255 251 229 225 250 245 275 246 268 284 288 273 331 330 326 324
2 354 356 283 291 294 258 128 343 343 320 1 10 39 114 206 216 195 185 215 239 154 149 9 267 250 271 270 276 267 261 255 252 254 256 262 271 286 157 175 277 293 297 299 303
22 61 284 315 310 277 210 10 10 351 237 73 355 312 257 325 308 278 224 210 288 207 193 203 221 216 256 332 303 268 256 245 239 226 240 241 266 163 197 250 283 294 300 301 302
Height
812 807 804 801 798 795 793 791 790 789 788 789 789 788 788 787 786 785 783 781 782 784 787 788 790 791 792 792 793 795 803 806 806 805 791 784 785 775 773 775 775 776 776 778 781
811 806 803 799 796 794 791 789 788 786 786 786 787 786 785 784 782 781 778 779 780 783 785 787 789 791 792 793 794 794 803 801 797 794 789 782 785 779 778 777 777 775 779 780 782
810 806 802 798 795 792 789 787 786 784 784 784 785 784 784 782 781 776 776 778 780 782 784 786 787 788 792 793 796 799 801 796 793 790 787 783 779 777 779 782 774 772 776 779 781
809 805 801 796 792 790 787 785 783 782 781 782 783 783 782 782 788 775 775 777 780 782 784 786 787 789 794 795 795 800 794 794 789 787 788 786 776 777 776 771 765 768 771 777 780
809 804 799 794 790 787 784 781 780 779 779 779 781 781 781 781 775 773 773 777 780 782 783 784 786 788 792 793 795 797 793 791 786 786 788 785 780 778 773 768 768 769 771 775 780
808 802 797 792 787 783 780 778 777 777 777 778 779 780 781 782 771 772 773 775 778 780 783 784 784 785 789 791 793 790 791 788 784 780 784 785 783 784 769 765 768 769 769 771 777
806 800 795 790 785 780 777 775 775 775 775 777 779 780 780 773 770 771 773 775 776 778 781 783 784 785 786 791 788 790 794 787 782 778 779 779 788 783 767 769 770 768 769 772 774
805 798 793 788 783 778 775 774 773 774 775 777 779 780 775 768 769 770 772 774 776 778 780 782 783 783 786 789 791 793 795 798 780 781 780 780 791 772 768 772 772 769 767 769 770
803 796 790 785 780 777 775 774 774 775 776 778 780 780 772 767 767 766 769 771 774 778 780 782 783 787 789 794 798 800 803 801 790 782 781 784 785 772 769 772 772 771 768 766 767
801 795 788 783 778 775 774 775 775 777 778 778 779 783 767 764 763 764 767 770 772 776 781 783 785 788 793 793 808 806 804 801 799 787 784 786 782 775 774 774 775 774 775 775 773
799 792 785 780 776 775 775 776 779 779 777 770 768 768 764 762 763 764 766 769 771 774 783 785 788 792 787 790 792 795 801 801 788 783 787 785 783 781 780 778 780 781 782 782 779
797 789 783 778 775 775 775 778 783 784 777 764 762 763 764 763 764 762 766 770 774 781 782 788 790 781 783 789 794 796 798 793 783 783 783 786 783 788 788 791 789 787 789 789 784
797 788 780 777 776 777 778 782 782 781 780 763 761 760 759 762 764 761 763 767 772 782 781 786 779 778 784 788 794 791 793 790 787 785 783 784 787 791 794 791 789 789 789 789 788
795 787 780 776 779 779 781 780 778 779 786 771 760 757 758 757 765 757 759 763 772 774 783 784 773 781 785 786 784 792 778 781 786 786 791 785 796 792 796 796 794 793 791 789 786
795 786 781 777 780 782 783 778 777 779 801 768 761 756 758 763 757 757 755 759 768 773 778 777 776 780 784 777 776 780 776 780 780 782 787 790 789 787 792 796 797 796 795 794 791
794 787 784 783 782 783 778 776 777 790 802 773 763 767 763 759 758 757 758 757 760 770 774 769 768 770 767 768 770 771 779 786 790 787 796 780 784 786 789 796 798 797 797 797 795
795 791 788 788 789 781 777 777 791 798 778 786 782 772 773 774 768 767 771 776 779 784 782 772 770 768 766 772 773 774 780 791 797 797 792 784 790 788 798 798 799 802 801 799 796
795 793 791 789 784 781 778 783 803 795 790 783 782 776 781 780 775 777 780 787 785 785 782 784 785 771 769 768 767 770 772 782 801 793 784 795 788 795 800 802 806 806 804 800 797
796 793 792 789 784 782 782 796 795 795 790 789 783 787 786 783 781 783 790 796 795 794 790 787 782 773 771 770 773 776 779 778 787 802 791 778 808 805 804 808 808 807 804 803 801
799 795 792 789 785 784 789 799 794 790 789 787 791 792 793 793 787 784 788 795 797 794 792 800 797 783 776 771 774 776 782 787 785 799 800 789 795 781 804 805 809 809 808 805 802
802 797 793 788 786 787 795 799 795 787 789 790 792 794 797 797 793 795 798 796 797 795 799 804 805 792 784 789 791 785 783 792 793 793 788 790 781 789 799 805 808 808 808 806 804
813 803 793 787 792 807 800 804 799 790 787 788 790 791 793 797 796 800 803 800 797 797 801 807 813 813 799 793 795 797 793 792 797 799 808 809 790 797 803 805 808 806 807 806 805
820 814 797 792 799 805 806 801 797 794 791 790 791 792 793 796 803 799 801 800 797 799 802 807 810 807 804 804 800 799 798 803 805 807 798 797 786 802 807 807 806 807 807 805 804
824 813 807 808 819 815 814 806 800 794 792 792 793 793 795 798 801 801 801 802 801 801 804 804 807 802 800 797 797 801 802 802 800 808 793 792 791 804 803 804 802 804 804 803 800
829 830 836 816 814 822 820 813 806 802 796 795 794 792 795 800 801 803 803 803 802 806 807 806 807 806 800 802 804 800 797 798 801 797 801 790 798 794 796 798 801 804 803 802 800
833 834 835 828 828 821 819 812 810 808 807 800 799 796 797 799 798 801 802 805 801 805 807 814 809 814 805 801 801 800 798 799 798 796 799 800 799 796 800 800 802 803 804 802 799
842 842 839 828 824 819 816 817 813 813 805 804 806 802 800 800 801 798 797 799 801 802 806 809 808 812 806 808 803 798 788 789 790 793 792 797 791 798 800 802 803 801 799 797 797